IQ1LY-3 Weather Reports


Display with metric or nautical units.
time (UTC)temp
F
wind
direction
speed
MPH
gust
MPH
rain 1hr
in
rain 24hr
in
rain mn
in
humidity
%
barometer
mb
20260506213600 56 90 0.0 0.0 0.00 0.00 0.00 82 1009.8
20260506212559 57 135 0.0 0.0 0.00 0.00 0.00 81 1009.5
20260506211558 57 68 0.0 0.0 0.00 0.00 0.00 80 1009.5
20260506210557 57 225 0.0 0.0 0.00 0.00 0.00 80 1009.5
20260506205525 58 225 0.0 0.0 0.00 0.00 0.00 79 1009.5
20260506204525 58 158 0.0 0.0 0.00 0.00 0.00 79 1009.5
20260506203524 58 270 0.0 0.0 0.00 0.00 0.00 78 1009.1
20260506202523 58 293 0.0 0.0 0.00 0.00 0.00 77 1009.1
20260506201450 59 293 0.0 0.0 0.00 0.00 0.00 76 1008.8
20260506200449 59 293 0.0 0.0 0.00 0.00 0.00 75 1008.8
20260506195417 60 293 0.0 0.0 0.00 0.00 0.00 73 1008.5
20260506194417 61 68 0.0 0.0 0.00 0.00 0.00 72 1008.5
20260506193416 61 270 0.0 0.0 0.00 0.00 0.00 69 1008.1
20260506192415 62 248 0.0 0.0 0.00 0.00 0.00 68 1008.1
20260506191343 62 248 0.0 0.0 0.00 0.00 0.00 68 1007.8
20260506190342 63 248 0.0 0.0 0.00 0.00 0.00 68 1007.8
20260506185341 64 248 0.0 0.0 0.00 0.00 0.00 65 1007.8
20260506184340 65 203 0.0 0.0 0.00 0.00 0.00 63 1007.5
20260506183339 66 225 0.0 0.0 0.00 0.00 0.00 61 1007.5
20260506182338 66 270 0.0 0.0 0.00 0.00 0.00 61 1007.5
20260506181337 66 158 0.0 2.0 0.00 0.00 0.00 60 1007.1
20260506180336 67 173 2.0 13.0 0.00 0.00 0.00 59 1007.1
20260506175335 67 180 0.0 11.0 0.00 0.00 0.00 59 1007.1
20260506174335 67 180 6.0 8.0 0.00 0.00 0.00 58 1006.8
20260506173334 67 241 5.0 5.0 0.00 0.00 0.00 57 1006.8
20260506172333 68 248 2.0 9.0 0.00 0.00 0.00 58 1006.8
20260506171300 68 270 1.0 4.0 0.00 0.00 0.00 58 1006.8
20260506170259 68 270 3.0 4.0 0.00 0.00 0.00 59 1006.8
20260506165258 69 248 0.0 3.0 0.00 0.00 0.00 60 1006.8
20260506164226 69 270 3.0 7.0 0.00 0.00 0.00 60 1006.4
20260506163225 69 203 4.0 6.0 0.00 0.00 0.00 60 1006.4
20260506162224 70 162 5.0 6.0 0.00 0.00 0.00 59 1006.4
20260506161223 71 135 3.0 6.0 0.00 0.00 0.00 59 1006.8
20260506160143 71 180 6.0 6.0 0.00 0.00 0.00 59 1006.4
20260506155112 71 239 3.0 6.0 0.00 0.00 0.00 59 1006.4
20260506154111 71 158 6.0 6.0 0.00 0.00 0.00 61 1006.4
20260506153039 71 248 3.0 8.0 0.00 0.00 0.00 60 1006.4
20260506152038 71 248 4.0 4.0 0.00 0.00 0.00 62 1006.4
20260506151037 70 135 2.0 7.0 0.00 0.00 0.00 63 1006.4
20260506145934 70 162 2.0 7.0 0.00 0.00 0.00 64 1006.8
20260506144933 70 216 4.0 6.0 0.00 0.00 0.00 63 1006.8
20260506143932 70 100 3.0 11.0 0.00 0.00 0.00 62 1006.8
20260506142931 71 180 13.0 14.0 0.00 0.00 0.00 61 1006.8
20260506141859 71 278 4.0 4.0 0.00 0.00 0.00 60 1006.8
20260506140858 72 270 3.0 3.0 0.00 0.00 0.00 58 1006.8
20260506135858 72 170 2.0 10.0 0.00 0.00 0.00 58 1006.8
20260506134857 72 211 9.0 10.0 0.00 0.00 0.00 57 1006.8
20260506133856 73 113 1.0 7.0 0.00 0.00 0.00 54 1006.8
20260506132824 72 225 7.0 7.0 0.00 0.00 0.00 56 1006.8
20260506131752 72 135 0.0 16.0 0.00 0.00 0.00 57 1006.8
20260506130750 72 219 2.0 4.0 0.00 0.00 0.00 58 1006.8
20260506125750 72 182 5.0 7.0 0.00 0.00 0.00 58 1006.8
20260506124749 72 151 3.0 5.0 0.00 0.00 0.00 57 1007.1
20260506123717 71 266 2.0 9.0 0.00 0.00 0.00 59 1007.1
20260506122716 71 278 5.0 9.0 0.00 0.00 0.00 60 1007.1
20260506121644 71 248 0.0 8.0 0.00 0.00 0.00 61 1007.1
20260506120510 70 165 6.0 8.0 0.00 0.00 0.00 65 1007.1
20260506115509 69 203 3.0 8.0 0.00 0.00 0.00 65 1007.1
20260506114509 69 180 8.0 12.0 0.00 0.00 0.00 65 1007.1
20260506113508 70 159 10.0 11.0 0.00 0.00 0.00 64 1007.1
20260506112507 70 203 2.0 10.0 0.00 0.00 0.00 64 1007.1
20260506111507 70 225 6.0 11.0 0.00 0.00 0.00 63 1007.5
20260506110506 70 272 8.0 11.0 0.00 0.00 0.00 63 1007.5
20260506105505 69 189 10.0 11.0 0.00 0.00 0.00 66 1007.1
20260506104504 68 207 9.0 11.0 0.00 0.00 0.00 66 1007.5
20260506103503 68 184 6.0 7.0 0.00 0.00 0.00 69 1007.5
20260506102502 68 180 5.0 8.0 0.00 0.00 0.00 70 1007.5
20260506101501 68 238 7.0 8.0 0.00 0.00 0.00 69 1007.5
20260506100500 67 158 0.0 7.0 0.00 0.00 0.00 68 1007.8
20260506095459 67 211 10.0 12.0 0.00 0.00 0.00 68 1007.8
20260506094459 67 161 6.0 8.0 0.00 0.00 0.00 68 1007.8
20260506093457 68 98 2.0 6.0 0.00 0.00 0.00 68 1007.8
20260506092456 68 113 5.0 6.0 0.00 0.00 0.00 69 1007.8
20260506091455 68 270 2.0 7.0 0.00 0.00 0.00 69 1007.8
20260506090454 68 203 3.0 3.0 0.00 0.00 0.00 70 1007.8
20260506085454 67 113 1.0 1.0 0.00 0.00 0.00 72 1007.8
20260506084453 67 225 0.0 4.0 0.00 0.00 0.00 74 1007.8
20260506083421 66 119 2.0 4.0 0.00 0.00 0.00 75 1007.8
20260506082420 65 248 2.0 2.0 0.00 0.00 0.00 77 1007.8
20260506081419 64 158 0.0 6.0 0.00 0.00 0.00 77 1007.8
20260506080348 64 158 6.0 6.0 0.00 0.00 0.00 78 1007.8
20260506073314 64 203 2.0 2.0 0.00 0.00 0.00 84 1007.8
20260506072313 63 248 0.0 0.0 0.00 0.00 0.00 86 1007.5
20260506071313 61 225 0.0 2.0 0.00 0.00 0.00 88 1007.5
20260506070312 60 270 0.0 1.0 0.00 0.00 0.00 90 1007.5
20260506062308 57 270 3.0 3.0 0.00 0.00 0.00 92 1007.1
20260506061236 56 270 0.0 3.0 0.00 0.00 0.00 92 1006.8
20260506060235 55 248 0.0 0.0 0.00 0.00 0.00 92 1006.8
20260506051059 55 203 0.0 0.0 0.00 0.00 0.00 92 1007.5
20260506045058 55 45 0.0 0.0 0.00 0.00 0.00 92 1007.8
20260506044057 56 293 0.0 0.0 0.00 0.00 0.00 92 1007.8
20260506043056 56 293 0.0 3.0 0.00 0.00 0.00 92 1007.8
20260506042055 56 270 0.0 2.0 0.00 0.00 0.00 92 1007.8
20260506041054 55 248 0.0 0.0 0.00 0.00 0.00 92 1007.8
20260506040022 55 293 0.0 0.0 0.00 0.00 0.00 92 1007.8
20260506035021 55 270 0.0 0.0 0.00 0.00 0.00 91 1007.8
20260506034020 56 270 0.0 0.0 0.00 0.00 0.00 91 1007.8
20260506033019 55 270 0.0 0.0 0.00 0.00 0.00 91 1007.8
20260506032018 55 270 0.0 0.0 0.00 0.00 0.00 91 1007.8
20260506030946 55 270 0.0 0.0 0.00 0.00 0.00 91 1008.1
20260506025946 55 293 0.0 1.0 0.00 0.00 0.00 91 1008.1
20260506024944 55 270 1.0 1.0 0.00 0.00 0.00 91 1007.8
20260506023944 55 248 0.0 0.0 0.00 0.00 0.00 91 1007.8
20260506022912 55 23 0.0 0.0 0.00 0.00 0.00 91 1008.1
20260506021810 56 248 0.0 0.0 0.00 0.00 0.00 91 1008.5
20260506020809 56 270 0.0 0.0 0.00 0.00 0.00 91 1008.5
20260506015737 56 248 0.0 0.0 0.00 0.00 0.00 91 1008.5
20260506014737 56 248 0.0 0.0 0.00 0.00 0.00 91 1008.8
20260506013735 56 158 0.0 0.0 0.00 0.00 0.00 91 1009.1
20260506012735 56 158 0.0 0.0 0.00 0.00 0.00 91 1008.8
20260506011734 56 270 0.0 0.0 0.00 0.00 0.00 91 1008.8
20260506010733 56 293 0.0 0.0 0.00 0.00 0.00 91 1009.1
20260506005732 56 293 0.0 0.0 0.00 0.00 0.00 91 1009.1
20260506004731 57 293 0.0 0.0 0.00 0.00 0.00 90 1009.1
20260506003659 57 338 0.0 0.0 0.00 0.00 0.00 90 1009.5
20260506002658 57 135 0.0 0.0 0.00 0.00 0.00 90 1009.1
20260506001657 57 180 0.0 0.0 0.00 0.00 0.00 90 1009.5
20260506000656 57 158 0.0 1.0 0.00 0.00 0.00 90 1010.2
20260505235655 57 270 1.0 4.0 0.00 0.00 0.00 90 1010.5
20260505234654 57 270 4.0 4.0 0.00 0.00 0.00 90 1010.5
20260505233653 57 248 0.0 0.0 0.00 0.00 0.00 90 1010.2
20260505232448 57 225 0.0 0.0 0.00 0.00 0.00 89 1010.2
20260505231448 57 225 0.0 0.0 0.00 0.00 0.00 89 1010.2
20260505230447 57 225 0.0 0.0 0.00 0.00 0.00 89 1010.5
20260505225446 57 225 0.0 0.0 0.00 0.00 0.00 89 1010.2
20260505224414 57 225 0.0 0.0 0.00 0.00 0.00 89 1010.5
20260505223342 57 270 0.0 0.0 0.00 0.00 0.00 89 1010.5
20260505222342 57 270 0.0 0.0 0.00 0.00 0.00 89 1010.8
20260505221239 57 270 0.0 0.0 0.00 0.00 0.00 89 1011.2
20260505220238 57 270 0.0 0.0 0.00 0.00 0.00 89 1011.2
20260505215238 57 270 0.0 0.0 0.00 0.00 0.00 89 1011.5
20260505214237 56 248 0.0 0.0 0.00 0.00 0.00 89 1011.5